Date String (YYYY-MM-DD hh:mm:ss) UTC,Instrument flags,absolute air pressure of the measurement (hPa),sample flow rate (lpm),inlet stack bypass flow (lpm),air temperature of the measurement (°C),ambient temperature measured by the external sensor (°C),aerosol sample conditioner tube jacket temperature (°C),OPC LED temperature (°C),internal box temperature (°C),relative humidity of the measurement (%),span deviation,mass concentration of particles derived from Lorenz-Mie calculation of OPC scattering (μg/m³),mass concentration of particles derived from Lorenz-Mie calculation of OPC scattering (μg/m³),mass concentration of particles derived from Lorenz-Mie calculation of OPC scattering (μg/m³)
DateTimeUTC,F1_M11,P_M11,Q1_M11,Q2_M11,T1_M11,T2_M11,T3_M11,T4_M11,T5_M11,U1_M11,ZSPAN_M11,X0_M11,X2_M11,X1_M11
2024-03-23 11:00:00,SystemResetWarning,0824.4,5.00,000.00,021.9,020.7,000.0,030.7,023.7,18.9,0000.0,0011.85,0003.99,0002.60
2024-03-23 11:01:00,SystemResetWarning,0824.5,5.00,000.00,021.8,020.6,000.0,030.6,023.6,18.9,0000.0,0011.77,0003.96,0002.56
2024-03-23 11:02:00,SystemResetWarning,0824.7,5.00,000.00,021.8,020.6,000.0,030.6,023.6,19.0,0000.0,0012.24,0003.96,0002.58
2024-03-23 11:03:00,SystemResetWarning,0824.7,5.00,000.00,021.8,020.6,000.0,030.6,023.6,19.0,0000.0,0012.78,0003.96,0002.59
2024-03-23 11:04:00,SystemResetWarning,0824.7,5.00,000.00,021.7,020.6,000.0,030.6,023.6,19.0,0000.0,0012.86,0004.03,0002.60
2024-03-23 11:05:00,SystemResetWarning,0824.7,5.00,000.00,021.7,020.5,000.0,030.6,023.6,19.0,0000.0,0013.55,0004.10,0002.59
2024-03-23 11:06:00,SystemResetWarning,0824.7,5.00,000.00,021.7,020.5,000.0,030.5,023.5,18.9,0000.0,0014.10,0004.10,0002.62
2024-03-23 11:07:00,SystemResetWarning,0824.5,5.00,000.00,021.7,020.5,000.0,030.5,023.5,18.9,0000.0,0013.97,0004.08,0002.64
2024-03-23 11:08:00,SystemResetWarning,0824.5,5.00,000.00,021.7,020.5,000.0,030.5,023.5,19.0,0000.0,0013.92,0004.07,0002.68
2024-03-23 11:09:00,SystemResetWarning,0824.4,5.00,000.00,021.6,020.5,000.0,030.5,023.5,19.0,0000.0,0013.90,0004.13,0002.70
2024-03-23 11:10:00,SystemResetWarning,0824.4,5.01,000.00,021.6,020.5,000.0,030.5,023.5,19.0,0000.0,0014.35,0004.16,0002.72
2024-03-23 11:11:00,SystemResetWarning,0824.4,5.00,000.00,021.6,020.5,000.0,030.5,023.5,19.0,0000.0,0014.38,0004.16,0002.74
2024-03-23 11:12:00,SystemResetWarning,0824.5,5.01,000.00,021.6,020.5,000.0,030.4,023.5,19.0,0000.0,0014.03,0004.09,0002.77
2024-03-23 11:13:00,SystemResetWarning,0824.5,5.00,000.00,021.6,020.6,000.0,030.4,023.5,19.0,0000.0,0013.47,0004.09,0002.77
2024-03-23 11:14:00,SystemResetWarning,0824.5,4.99,000.00,021.6,020.5,000.0,030.4,023.4,19.0,0000.0,0014.05,0004.10,0002.78
2024-03-23 11:15:00,SystemResetWarning,0824.5,4.99,000.00,021.6,020.5,000.0,030.4,023.4,19.0,0000.0,0014.01,0004.05,0002.79
2024-03-23 11:16:00,SystemResetWarning,0824.5,5.00,000.00,021.5,020.4,000.0,030.4,023.3,19.0,0000.0,0013.95,0003.99,0002.80
2024-03-23 11:17:00,SystemResetWarning,0824.5,5.02,000.00,021.5,020.3,000.0,030.3,023.3,19.0,0000.0,0013.29,0003.98,0002.80
2024-03-23 11:18:00,SystemResetWarning,0824.4,5.00,000.00,021.5,020.2,000.0,030.3,023.3,19.1,0000.0,0013.18,0003.95,0002.78
2024-03-23 11:19:00,SystemResetWarning,0824.4,4.99,000.00,021.4,020.2,000.0,030.3,023.2,19.1,0000.0,0013.97,0003.98,0002.76
2024-03-23 11:20:00,SystemResetWarning,0824.4,4.99,000.00,021.4,020.2,000.0,030.3,023.2,19.1,0000.0,0014.63,0003.99,0002.74
2024-03-23 11:21:00,SystemResetWarning,0824.5,5.00,000.00,021.4,020.2,000.0,030.2,023.2,19.1,0000.0,0015.65,0003.96,0002.72
2024-03-23 11:22:00,SystemResetWarning,0824.5,5.00,000.00,021.4,020.2,000.0,030.2,023.2,19.2,0000.0,0016.19,0003.94,0002.72
2024-03-23 11:23:00,SystemResetWarning,0824.5,5.01,000.00,021.3,020.2,000.0,030.2,023.1,19.2,0000.0,0016.39,0003.98,0002.73
2024-03-23 11:24:00,SystemResetWarning,0824.6,5.00,000.00,021.3,020.1,000.0,030.2,023.1,19.2,0000.0,0016.89,0003.98,0002.73
2024-03-23 11:25:00,SystemResetWarning,0824.6,5.00,000.00,021.3,020.1,000.0,030.2,023.1,19.3,0000.0,0016.28,0003.99,0002.73
2024-03-23 11:26:00,SystemResetWarning,0824.7,5.00,000.00,021.3,020.1,000.0,030.1,023.1,19.3,0000.0,0016.68,0004.02,0002.74
2024-03-23 11:27:00,SystemResetWarning,0824.5,5.00,000.00,021.3,020.1,000.0,030.1,023.1,19.3,0000.0,0016.43,0003.99,0002.73
2024-03-23 11:28:00,SystemResetWarning,0824.4,4.99,000.00,021.3,020.2,000.0,030.1,023.1,19.3,0000.0,0016.77,0003.96,0002.71
2024-03-23 11:29:00,SystemResetWarning,0824.4,4.99,000.00,021.3,020.2,000.0,030.1,023.1,19.3,0000.0,0016.69,0003.98,0002.73
2024-03-23 11:30:00,SystemResetWarning,0824.4,5.01,000.00,021.2,020.2,000.0,030.1,023.1,19.3,0000.0,0016.11,0004.01,0002.75
2024-03-23 11:31:00,SystemResetWarning,0824.4,5.01,000.00,021.2,020.2,000.0,030.1,023.1,19.3,0000.0,0015.74,0003.98,0002.78
2024-03-23 11:32:00,SystemResetWarning,0824.6,4.99,000.00,021.2,020.2,000.0,030.0,023.1,19.2,0000.0,0015.85,0004.01,0002.79
2024-03-23 11:33:00,SystemResetWarning,0824.7,4.99,000.00,021.2,020.2,000.0,030.0,023.1,19.2,0000.0,0014.73,0004.06,0002.79
2024-03-23 11:34:00,SystemResetWarning,0824.6,5.02,000.00,021.2,020.2,000.0,030.0,023.1,19.1,0000.0,0015.46,0004.05,0002.77
2024-03-23 11:35:00,SystemResetWarning,0824.5,5.00,000.00,021.2,020.3,000.0,030.0,023.1,19.0,0000.0,0014.94,0004.06,0002.77
2024-03-23 11:36:00,SystemResetWarning,0824.6,4.99,000.00,021.2,020.3,000.0,030.0,023.1,19.1,0000.0,0015.41,0004.07,0002.76
2024-03-23 11:37:00,SystemResetWarning,0824.5,4.99,000.00,021.2,020.3,000.0,030.0,023.1,19.0,0000.0,0015.60,0004.05,0002.74
2024-03-23 11:38:00,SystemResetWarning,0824.4,5.00,000.00,021.2,020.3,000.0,030.0,023.1,19.0,0000.0,0015.25,0004.06,0002.73
2024-03-23 11:39:00,SystemResetWarning,0824.4,5.01,000.00,021.2,020.3,000.0,030.0,023.1,19.0,0000.0,0015.52,0004.15,0002.75
2024-03-23 11:40:00,SystemResetWarning,0824.4,5.01,000.00,021.2,020.3,000.0,029.9,023.1,19.2,0000.0,0015.10,0004.10,0002.72
2024-03-23 11:41:00,SystemResetWarning,0824.3,4.99,000.00,021.2,020.3,000.0,029.9,023.1,19.2,0000.0,0014.97,0004.07,0002.68
2024-03-23 11:42:00,SystemResetWarning,0824.3,4.99,000.00,021.2,020.3,000.0,029.9,023.1,19.2,0000.0,0014.95,0004.05,0002.64
2024-03-23 11:43:00,SystemResetWarning,0824.4,4.99,000.00,021.2,020.3,000.0,029.9,023.0,19.2,0000.0,0014.65,0004.01,0002.61
2024-03-23 11:44:00,SystemResetWarning,0824.4,5.01,000.00,021.1,020.2,000.0,029.9,023.0,19.3,0000.0,0015.16,0004.00,0002.61
2024-03-23 11:45:00,SystemResetWarning,0824.5,5.00,000.00,021.1,020.2,000.0,029.9,023.0,19.4,0000.0,0014.47,0003.97,0002.60
2024-03-23 11:46:00,SystemResetWarning,0824.3,5.00,000.00,021.1,020.2,000.0,029.9,023.0,19.4,0000.0,0013.37,0003.97,0002.60
2024-03-23 11:47:00,SystemResetWarning,0824.3,4.99,000.00,021.1,020.2,000.0,029.9,023.0,19.3,0000.0,0013.70,0004.00,0002.59
2024-03-23 11:48:00,SystemResetWarning,0824.5,4.99,000.00,021.1,020.2,000.0,029.9,023.0,19.3,0000.0,0012.61,0003.97,0002.58
2024-03-23 11:49:00,SystemResetWarning,0824.7,5.00,000.00,021.1,020.2,000.0,029.8,023.0,19.3,0000.0,0012.17,0003.96,0002.57
2024-03-23 11:50:00,SystemResetWarning,0824.7,4.99,000.00,021.1,020.2,000.0,029.8,023.0,19.2,0000.0,0012.05,0003.91,0002.55
2024-03-23 11:51:00,SystemResetWarning,0824.4,5.00,000.00,021.1,020.2,000.0,029.8,023.0,19.2,0000.0,0012.74,0003.92,0002.55
2024-03-23 11:52:00,SystemResetWarning,0824.4,5.00,000.00,021.1,020.2,000.0,029.8,023.0,19.2,0000.0,0013.70,0004.00,0002.56
2024-03-23 11:53:00,SystemResetWarning,0824.4,5.01,000.00,021.1,020.2,000.0,029.8,023.0,19.2,0000.0,0013.96,0004.00,0002.57
2024-03-23 11:54:00,SystemResetWarning,0824.4,5.00,000.00,021.1,020.3,000.0,029.8,023.0,19.2,0000.0,0014.46,0004.00,0002.57
2024-03-23 11:55:00,SystemResetWarning,0824.3,5.00,000.00,021.1,020.2,000.0,029.8,023.0,19.2,0000.0,0013.38,0004.00,0002.57
2024-03-23 11:56:00,SystemResetWarning,0824.3,5.00,000.00,021.0,020.3,000.0,029.8,022.9,19.3,0000.0,0013.37,0003.99,0002.57
2024-03-23 11:57:00,SystemResetWarning,0824.4,5.00,000.00,021.0,020.2,000.0,029.8,022.9,19.3,0000.0,0013.47,0003.99,0002.58
2024-03-23 11:58:00,SystemResetWarning,0824.4,4.99,000.00,021.0,020.2,000.0,029.8,022.9,19.3,0000.0,0013.41,0003.95,0002.57
2024-03-23 11:59:00,SystemResetWarning,0824.5,5.01,000.00,021.0,020.2,000.0,029.8,022.9,19.2,0000.0,0014.35,0003.98,0002.58
